This is the latest recevied weather packets stored in our database for station/object N4CRH-13. If no packets are shown the sender has not sent any weather packets the latest 10 day(s).
| Time | Temp. | Humidity | Pressure | Rain* | Wind** | Luminosity | Snow |
|---|---|---|---|---|---|---|---|
| 1777815440 | 9.44° C | 47% | 1297.3 hPa | 0 mm | - | 78 W/m² | - |
| 1777814227 | 8.89° C | 51% | 1297.5 hPa | 0 mm | - | 59 W/m² | - |
| 1777813318 | 8.33° C | 46% | 1297.1 hPa | 0 mm | - | 46 W/m² | - |
| 1777813015 | 8.89° C | 43% | 1297 hPa | 0 mm | - | 42 W/m² | - |
| 1777811806 | 8.89° C | 37% | 1296.9 hPa | 0 mm | - | 28 W/m² | - |
| 1777811199 | 7.78° C | 40% | 1296.8 hPa | 0 mm | - | 20 W/m² | - |
| 1777810592 | 6.67° C | 42% | 1296.7 hPa | 0 mm | - | 13 W/m² | - |
| 1777810290 | 6.67° C | 46% | 1296.7 hPa | 0 mm | - | 9 W/m² | - |
| 1777809079 | 5.56° C | 48% | 1296.4 hPa | 0 mm | - | 1 W/m² | - |
| 1777808171 | 6.67° C | 46% | 1296.4 hPa | 0 mm | - | 0 W/m² | - |
| 1777807868 | 6.11° C | 45% | 1296.2 hPa | 0 mm | - | 0 W/m² | - |
| 1777807567 | 6.67° C | 44% | 1296 hPa | 0 mm | - | 0 W/m² | - |
| 1777806958 | 7.78° C | 42% | 1296.4 hPa | 0 mm | - | 0 W/m² | - |
| 1777806655 | 8.89° C | 36% | 1296.2 hPa | 0 mm | - | 0 W/m² | - |
| 1777806048 | 9.44° C | 38% | 1296.3 hPa | 0 mm | - | 0 W/m² | - |
| 1777805744 | 10° C | 35% | 1296.2 hPa | 0 mm | - | 0 W/m² | - |
| 1777803626 | 10.56° C | 32% | 1296.3 hPa | 0 mm | - | 0 W/m² | - |
| 1777803020 | 11.11° C | 30% | 1296.5 hPa | 0 mm | - | 0 W/m² | - |
| 1777802717 | 11.67° C | 30% | 1296.5 hPa | 0 mm | - | 0 W/m² | - |
| 1777802415 | 11.11° C | 30% | 1296.4 hPa | 0 mm | - | 0 W/m² | - |
| 1777802113 | 11.11° C | 30% | 1296.5 hPa | 0 mm | - | 0 W/m² | - |
| 1777801810 | 10° C | 32% | 1296.5 hPa | 0 mm | - | 0 W/m² | - |
| 1777801203 | 10.56° C | 34% | 1296.4 hPa | 0 mm | - | 0 W/m² | - |
| 1777800900 | 10.56° C | 33% | 1296.5 hPa | 0 mm | - | 0 W/m² | - |
| 1777800596 | 11.11° C | 33% | 1296.5 hPa | 0 mm | - | 0 W/m² | - |
* Rain latest hour (hover to see other rain measurements)
** Current wind speed in m/s (hover to see current wind gust speed)